Flag for U.S.A. Weather past 2 weeks in Mountain View, California, U.S.A.

Now
59 °F

Sunny.


Feels Like: 59 °F
Forecast: 46 / 63 °F
Wind: 5 mph from North

Location: Moffett Field

Current Time: Jan 30, 2015 at 12:14:48 PM

Latest Report: Jan 30, 2015 at 11:56 AM


Visibility: 9 mi

Pressure: 30.00 "Hg

Humidity: 72%

Dew point: 50 °F

Location of Mountain ViewLocation

Historic Weather in Mountain View — Graph

°F

Mountain View temperature yesterday

Maximum temperature yesterday: 66 °F (at 2:56 PM)
Minimum temperature yesterday: 47 °F (at 3:56 AM)
Average temperature yesterday: 55 °F

Past Weeks' High & Low Weather Summary

 TemperatureHumidityPressure
High69 °F (Jan 24, 1:56 PM)97% (Jan 19, 5:56 AM)30.38 "Hg (Jan 19, 5:56 AM)
Low41 °F (Jan 23, 5:56 AM)26% (Jan 24, 3:56 PM)29.97 "Hg (Jan 26, 3:56 PM)
Average54 °F73%30.20 "Hg
* Reported Jan 15 10:56 AM — Jan 30 10:56 AM, Mountain View, Weather by CustomWeather, © 2014

Note: Actual official high and low records may vary slightly from our data, if they occured in-between our weather recording intervals... More about our weather records

Advertising

Mountain View weather history for previous 24 hours

 ConditionsComfort  
Time TempWeatherWind HumidityBarometerVisibility
10:56 AM
Jan 30
57 °FSunny.No wind78%30.03 "Hg8 mi
9:56 AM53 °FFog.No wind89%30.05 "Hg6 mi
8:56 AM52 °FFog.No wind89%30.05 "Hg5 mi
7:56 AM51 °FFog.No wind92%30.05 "Hg5 mi
6:56 AM50 °FFog.No wind93%30.04 "Hg5 mi
5:56 AM49 °FFog.No wind90%30.04 "Hg5 mi
4:56 AM49 °FFog.No wind90%30.04 "Hg6 mi
3:56 AM51 °FPassing clouds.No wind86%30.05 "Hg8 mi
2:56 AM53 °FLow clouds.No wind86%30.06 "Hg9 mi
1:56 AM51 °FPassing clouds.No wind86%30.07 "Hg10 mi
12:56 AM50 °FClear.No wind83%30.07 "Hg10 mi
11:56 PM
Jan 29
50 °FClear.No wind86%30.09 "Hg10 mi
10:56 PM52 °FClear.No wind83%30.09 "Hg10 mi
9:56 PM53 °FClear.No wind89%30.09 "Hg10 mi
8:56 PM54 °FClear.No wind86%30.09 "Hg10 mi
7:56 PM55 °FClear.No wind83%30.09 "Hg10 mi
6:56 PM56 °FClear.3 mph81%30.09 "Hg10 mi
5:56 PM61 °FClear.No wind65%30.08 "Hg10 mi
4:56 PM62 °FSunny.6 mph62%30.07 "Hg10 mi
3:56 PM64 °FSunny.9 mph58%30.08 "Hg10 mi
2:56 PM66 °FSunny.9 mph54%30.08 "Hg10 mi
1:56 PM65 °FSunny.No wind52%30.09 "Hg10 mi
12:56 PM63 °FSunny.5 mph56%30.11 "Hg10 mi
Weather by CustomWeather, © 2014

See weather overviewHow to use our weather pages